sat.trackr.live / text

‹ back to catalog

STARLINK-3764

NORAD 52280 · 2022-041V

PAYLOAD ACTIVE UNKNOWN

§ Identity

Operator
Country
US
Launch date
2022-04-21
Launch site
AFETR
Launch vehicle
Mass (kg)
RCS (m²)

Purposes: comms

External: N2YO · Heavens-Above · Gunter

§ Orbital elements

Epoch: 2026-05-25T02:20:48.428736Z

Period
95.44 min
Inclination
53.2135°
Eccentricity
0.0001470
Mean motion
15.08830109 rev/d
Perigee alt
538.8 km
Apogee alt
540.8 km
Semi-major
6,917.9 km
B*
-2.0126e-5
RAAN
126.1103°
Arg perigee
71.7764°
Mean anomaly
288.3388°
Rev number
22,590

§ Raw data

STARLINK-37641 52280U 22041V   26145.09778274 -.00000608  00000+0 -20126-4 0  99982 52280  53.2135 126.1103 0001470  71.7764 288.3388 15.08830109225909

JSON: /api/v1/satellites/52280 · /tle

For live sub-satellite position, see the globe view (requires WebGL).

§ Visibility from observer

Set your observer location to see the next 7 days of passes ≥ 10°. The values pass through the URL so the page stays shareable.

No JS? Fill the form by hand. The geolocation button needs JavaScript.